Hourly Data Report for June 15, 2021

WINNIPEG THE FORKS
MANITOBA
Current Station Operator: ECCC - MSC

49°53'18.008" N
97°07'46.007" W
230.00 m
5023262
71579
XWN

Download Data

Hourly Data (June 2021)
Hourly Data Report for June 15, 2021
TIME
LST
Temp Definition
°C
Dew Point Definition
°C
Rel Hum Definition
%
Precip. Amount Definition
mm

Wind Dir Definition
10's deg

Wind Spd Definition
km/h
Visibility Definition
km
Stn Press Definition
kPa
Hmdx Definition


Wind Chill Definition


Weather Definition


00:00 18.0 10.8 63 0.0 36 2   99.47     LegendNANA
01:00 17.0 11.5 70 0.0 2 2   99.48     LegendNANA
02:00 16.2 11.6 74 0.0   0   99.44     LegendNANA
03:00 16.4 10.7 69 0.0 0 1   99.46     LegendNANA
04:00 15.4 10.9 74 0.0 22 1   99.49     LegendNANA
05:00 15.2 10.7 74 0.0 21 2   99.52     LegendNANA
06:00 17.1 11.2 68 0.0 22 3   99.54     LegendNANA
07:00 18.6 11.2 62 0.0 19 3   99.57     LegendNANA
08:00 20.8 11.8 57 0.0 20 3   99.57     LegendNANA
09:00 22.2 12.2 53 0.0 20 5   99.54 25   LegendNANA
10:00 23.9 11.9 47 0.0 21 8   99.51 26   LegendNANA
11:00 24.7 11.4 43 0.0 19 4   99.49 27   LegendNANA
12:00 25.2 10.3 39 0.0 20 7   99.40 27   LegendNANA
13:00 26.1 11.1 39 0.0 18 4   99.36 28   LegendNANA
14:00 27.2 11.3 37 0.0 20 5   99.32 29   LegendNANA
15:00 27.1 12.2 40 0.0 9 6   99.26 29   LegendNANA
16:00 28.0 10.4 33 0.0 18 4   99.22 29   LegendNANA
17:00 27.7 10.4 34 0.0 7 3   99.17 29   LegendNANA
18:00 27.8 10.4 34 0.0 7 3   99.13 29   LegendNANA
19:00 26.6 10.0 35 0.0 22 4   99.10 28   LegendNANA
20:00 25.0 10.0 39 0.0 12 3   99.07 26   LegendNANA
21:00 23.4 10.1 43 0.0 9 3   99.05 25   LegendNANA
22:00 22.3 10.2 46 0.0 10 4   99.03     LegendNANA
23:00 21.3 11.0 52 0.0 10 3   99.01     LegendNANA

Notes on Data Quality.

Legend

  • E = Estimated
  • M = Missing
  • NA = Not Available*
  • [empty] = Indicates an unobserved value
Date modified: